Location: Gaast
(52.9002°N, 5.8891°E)
Time: 22:24:19
(UTC+00:00)

Cosmos 1954 Rocket - Pass Details

Date: 18 November 2025
Orbit: 748 x 776 km, 74.0° (Epoch: 04 December)

Event Time Altitude Azimuth Distance (km) Brightness Sun altitude
Rises 18:07:32 0° 201° (SSW) 3,238 7.6 -22.2°
Reaches altitude 10° 18:09:55 10° 201° (SSW) 2,312 6.7 -22.6°
Maximum altitude 18:15:10 84° 114° (ESE) 780 3.9 -23.4°
Enters shadow 18:16:51 45° 31° (NNE) 1,047 4.4 -23.6°
